< < Back
Terminal Aerodrome Forecast


Current Version              Previous Versions:   1  2  3  4  5  6  7  8  9  

Terminal Aerodrome Forecast

860
FTUS42 KTAE 290200 AAC
TAFTLH
TAF AMD
KTLH 290201Z 2902/2924 26005KT P6SM -TSRA OVC019CB
     FM290300 32006KT P6SM SCT030 BKN100
     FM291200 34008KT P6SM SCT120
     FM291700 31011KT P6SM SKC=



Latest METAR

020
SAUS80 KWBC 291900 RRA
MTRTLH
METAR KTLH 291853Z 26011G16KT 10SM BKN050 BKN250 33/17 A2995 RMK AO2
SLPNO T03330172 $


USA.gov is the U.S. government's official web portal to all federal, state and local government web resources and services.